Location: Marsån
(66.4167°N, 22.2833°E)
Time: 10:34:22
(UTC+00:00)

Cosmos 2074 Rocket - Pass Details

Date: 24 February 2024
Orbit: 967 x 985 km, 82.9° (Epoch: 15 April)

Event Time Altitude Azimuth Distance (km) Brightness Sun altitude
Rises 21:12:45 0° 338° (NNW) 3,697 8.2 -30.9°
Reaches altitude 10° 21:15:20 10° 342° (NNW) 2,748 7.2 -31.0°
Enters shadow 21:21:14 58° 48° (NE) 1,140 4.3 -31.3°
